[[{"header":{"parameterUnit":"m.s-1","parameterCategory":1,"la1":30.2991,"la2":30.254,"lo1":-89.0895,"lo2":-89.0444,"dx":0.0017,"dy":0.0017,"nx":28,"ny":28,"refTime":"2022-12-24T09:00:00:Z","depth":0,"parameterNumber":2,"parameterNumberName":"U-component_of_WINDS"},"data":[0,0,0,0,0,0,0,0,0,0,0,0,0,0,0,0,0,0,0,0,0,0,0,0,0,0,0,0,0,0,0,0,0,0,0,0,0,0,0,0,0,0,0,0,0,0,0,0,0,0,0,0,0,0,0,0,0,0,1.1544,1.1544,0,1.1538,1.1538,1.1538,1.1531,1.1531,1.1531,1.1531,1.1524,1.1524,1.1524,0,0,0,0,0,0,0,0,0,0,0,0,0,1.1548,1.1548,1.1544,1.1544,1.1544,1.1538,1.1538,1.1538,1.1531,1.1531,1.1531,1.1531,1.1524,1.1524,1.1524,0,0,0,0,0,0,0,0,0,0,0,0,0,1.1545,1.1548,1.1544,1.154,1.1539,1.1538,1.1538,1.1538,1.1531,1.1531,1.1531,1.1531,1.1524,1.1524,1.1524,1.1526,0,0,1.1523,1.1523,0,0,0,0,0,0,0,0,1.1545,1.1545,1.154,1.154,1.154,1.1535,1.1537,1.1534,1.1532,1.1534,1.1531,1.1531,1.1528,1.1527,1.1527,1.1526,1.1525,1.1523,1.1523,1.1523,1.1523,0,0,0,0,0,0,0,1.1545,1.1545,1.1542,1.154,1.154,1.1538,1.1537,1.1537,1.1532,1.1534,1.1534,1.1533,1.1528,1.1527,1.1526,1.1525,1.1523,1.1523,1.1523,1.1523,1.1527,1.1527,0,0,0,0,0,0,1.1546,1.1545,1.1542,1.1542,1.1542,1.1538,1.1537,1.1537,1.1532,1.1531,1.1533,1.1533,1.1527,1.1527,1.1526,1.1529,1.1523,1.1523,1.1523,1.1526,1.1527,1.1527,0,0,0,0,0,0,1.1546,1.1546,1.1542,1.1543,1.1543,1.1538,1.1538,1.1537,1.1536,1.1531,1.153,1.1533,1.1527,1.1526,1.1526,1.1528,1.1523,1.1523,1.1526,1.1526,1.1527,1.1534,0,0,0,0,0,0,1.1547,1.1546,1.1547,1.1543,1.1543,1.1543,1.1538,1.1537,1.1536,1.1535,1.1531,1.153,1.1527,1.1527,1.1526,1.1528,1.1523,1.1526,1.1526,1.1527,1.1533,1.1534,1.1535,0,0,0,0,0,1.1547,1.1549,1.1547,1.1547,1.1544,1.1543,1.1542,1.1538,1.1536,1.1537,1.1534,1.153,1.1528,1.1527,1.1526,1.1528,1.1526,1.1526,1.1527,1.1533,1.1534,1.1535,0,0,0,0,0,0,1.1552,1.1548,1.1546,1.1547,1.1545,1.1542,1.1542,1.154,1.1538,1.1538,1.1533,1.1532,1.1532,1.153,1.1528,1.153,1.1527,1.1527,1.1532,1.1533,1.1533,1.1534,1.1523,0,0,0,0,0,1.1553,1.1553,1.155,1.1551,1.155,1.1547,1.1546,1.1543,1.1541,1.154,1.1537,1.1535,1.1534,1.1533,1.1532,1.1533,1.1532,1.1534,1.1535,1.1536,1.1536,1.1537,1.1538,1.1528,1.1528,1.1528,0,0,1.1556,1.1554,1.1554,1.1552,1.155,1.155,1.1546,1.1546,1.1546,1.154,1.154,1.1538,1.1535,1.1536,1.1536,1.1534,1.1539,1.1537,1.1537,1.1537,1.1538,1.1539,1.154,1.1528,1.1528,1.1528,0,0,1.156,1.1559,1.156,1.1559,1.1557,1.1554,1.1555,1.1552,1.155,1.155,1.1546,1.1546,1.1544,1.1543,1.1541,1.1547,1.1544,1.1547,1.1551,1.1552,1.1553,1.1553,1.1556,1.1556,1.1547,1.1547,1.1547,0,1.1564,1.1564,1.1561,1.1561,1.156,1.1556,1.1558,1.1556,1.1554,1.1553,1.1551,1.155,1.1547,1.1548,1.155,1.1549,1.1549,1.1547,1.1553,1.1554,1.1554,1.1556,1.1557,1.1547,1.1547,1.1547,1.1547,0,1.1568,1.1568,1.1569,1.1567,1.1567,1.1568,1.1565,1.1565,1.1563,1.1561,1.1561,1.1559,1.1557,1.1557,1.1555,1.1558,1.1557,1.1554,1.155,1.1556,1.1557,1.1558,1.1548,1.1548,1.1548,1.1548,0,0,1.1574,1.1572,1.1573,1.1572,1.157,1.157,1.1571,1.157,1.157,1.1569,1.1569,1.1569,1.1566,1.1565,1.1563,1.1564,1.1569,1.1561,1.1561,1.1562,1.1572,1.1574,1.1575,1.1567,1.1567,1.1567,1.1572,0,1.1579,1.158,1.1578,1.158,1.158,1.1577,1.1578,1.1576,1.1575,1.1575,1.1573,1.1573,1.157,1.1569,1.157,1.1568,1.157,1.1567,1.1567,1.1567,1.1567,1.1576,1.1577,1.1583,1.1573,1.1573,1.1573,0,1.1583,1.1583,1.1585,1.1584,1.1584,1.1585,1.1584,1.1584,1.1583,1.1582,1.1581,1.1579,1.1579,1.1576,1.1577,1.1575,1.1575,1.1574,1.1574,1.1574,1.157,1.1575,1.1584,1.1585,1.1574,1.1574,1.1574,0,1.1588,1.1588,1.159,1.1589,1.1588,1.1588,1.1588,1.1587,1.1587,1.1586,1.1586,1.1585,1.1585,1.1585,1.1582,1.158,1.1584,1.158,1.1583,1.1583,1.1583,1.1583,1.1592,1.1583,1.1583,1.1583,1.1583,0,1.1593,1.1594,1.1592,1.1593,1.1594,1.1592,1.1594,1.1593,1.1592,1.1593,1.159,1.159,1.1587,1.1587,1.1585,1.1587,1.1587,1.1586,1.1585,1.1586,1.1586,1.1585,1.1585,1.1584,1.1584,1.1584,1.1583,0,1.1598,1.1596,1.1598,1.1597,1.1597,1.1598,1.1597,1.1598,1.1596,1.1597,1.1597,1.1595,1.1595,1.1593,1.1593,1.1592,1.1594,1.1593,1.1594,1.1594,1.1596,1.1596,1.1605,1.1606,1.1597,1.1597,1.1597,0,1.1601,1.1602,1.1601,1.1602,1.1601,1.1602,1.1602,1.16,1.1601,1.16,1.1601,1.1601,1.1601,1.1602,1.16,1.16,1.1599,1.1602,1.1599,1.16,1.1599,1.1599,1.1599,1.1602,1.1603,1.1603,1.1603,0,1.1606,1.1606,1.1606,1.1607,1.1607,1.1607,1.1607,1.1608,1.1606,1.1606,1.1607,1.1607,1.1607,1.1608,1.1607,1.1607,1.1604,1.1604,1.1604,1.1605,1.1606,1.1605,1.1596,1.1604,1.1603,1.1603,1.1603,1.1603,1.161,1.1611,1.1611,1.1612,1.1612,1.1612,1.1613,1.1613,1.1613,1.1613,1.1612,1.1613,1.1613,1.1613,1.1612,1.1613,1.1611,1.1612,1.1612,1.1612,1.1613,1.1606,1.1613,1.1613,1.1613,1.1613,1.1613,0,1.1615,1.1615,1.1616,1.1617,1.1617,1.1616,1.1616,1.1617,1.1618,1.1618,1.1618,1.162,1.162,1.1619,1.1619,1.162,1.1619,1.162,1.162,1.162,1.1614,1.1614,1.1621,1.1621,1.1621,1.1621,1.1621,1.1621,1.1618,1.162,1.162,1.1622,1.1622,1.1623,1.1623,1.1624,1.1624,1.1625,1.1626,1.1625,1.1625,1.1626,1.1626,1.1626,1.1626,1.1627,1.1627,1.1621,1.162,1.1619,1.1619,1.1628,1.1628,1.1633,1.1633,1.1633]},{"header":{"parameterUnit":"m.s-1","parameterCategory":1,"la1":30.2991,"la2":30.254,"lo1":-89.0895,"lo2":-89.0444,"dx":0.0017,"dy":0.0017,"nx":28,"ny":28,"refTime":"2022-12-24T09:00:00:Z","depth":0,"parameterNumber":3,"parameterNumberName":"V-component_of_WINDS"},"data":[0,0,0,0,0,0,0,0,0,0,0,0,0,0,0,0,0,0,0,0,0,0,0,0,0,0,0,0,0,0,0,0,0,0,0,0,0,0,0,0,0,0,0,0,0,0,0,0,0,0,0,0,0,0,0,0,0,0,-5.9391,-5.9392,0,-5.9486,-5.9487,-5.9488,-5.9465,-5.9464,-5.9462,-5.946,-5.9551,-5.9555,-5.9559,0,0,0,0,0,0,0,0,0,0,0,0,0,-5.9187,-5.9191,-5.9391,-5.9392,-5.9393,-5.9485,-5.9487,-5.9488,-5.9466,-5.9463,-5.9461,-5.9459,-5.955,-5.9555,-5.956,0,0,0,0,0,0,0,0,0,0,0,0,0,-5.9278,-5.9192,-5.9391,-5.9393,-5.9395,-5.9485,-5.9487,-5.9488,-5.9466,-5.9463,-5.9461,-5.9458,-5.9548,-5.9554,-5.956,-5.9652,0,0,-5.9579,-5.9582,0,0,0,0,0,0,0,0,-5.9273,-5.9285,-5.9392,-5.9393,-5.9395,-5.9461,-5.9448,-5.9543,-5.9467,-5.9439,-5.946,-5.9457,-5.9523,-5.9531,-5.9555,-5.9657,-5.966,-5.958,-5.9583,-5.9586,-5.9588,0,0,0,0,0,0,0,-5.9266,-5.9281,-5.9428,-5.9393,-5.9395,-5.9389,-5.9399,-5.9466,-5.9495,-5.9441,-5.944,-5.9451,-5.9523,-5.9549,-5.9557,-5.9662,-5.958,-5.9585,-5.9589,-5.9591,-5.9846,-5.9848,0,0,0,0,0,0,-5.9259,-5.9276,-5.9425,-5.9431,-5.9326,-5.9394,-5.9406,-5.9442,-5.9494,-5.9499,-5.9454,-5.945,-5.954,-5.9549,-5.956,-5.9672,-5.9586,-5.9592,-5.9595,-5.9843,-5.9846,-5.985,0,0,0,0,0,0,-5.9255,-5.9273,-5.9421,-5.9353,-5.9372,-5.9401,-5.9442,-5.9446,-5.9471,-5.9504,-5.9508,-5.9475,-5.9538,-5.9551,-5.963,-5.9675,-5.9595,-5.96,-5.9839,-5.9844,-5.9848,-5.9897,0,0,0,0,0,0,-5.9249,-5.9272,-5.9308,-5.9354,-5.9375,-5.9492,-5.9445,-5.9449,-5.9482,-5.9479,-5.9524,-5.9529,-5.9537,-5.9621,-5.9636,-5.9682,-5.9605,-5.9835,-5.9841,-5.9846,-5.9891,-5.9902,-5.9912,0,0,0,0,0,-5.9242,-5.9316,-5.931,-5.9328,-5.9421,-5.9494,-5.9506,-5.9515,-5.9486,-5.9522,-5.9543,-5.9528,-5.9668,-5.963,-5.9646,-5.9694,-5.9832,-5.9839,-5.9846,-5.9887,-5.99,-5.9912,0,0,0,0,0,0,-5.9271,-5.9322,-5.9316,-5.9407,-5.9447,-5.949,-5.9536,-5.9529,-5.9576,-5.957,-5.9577,-5.9587,-5.9669,-5.9689,-5.9646,-5.9787,-5.9746,-5.9756,-5.9771,-5.9784,-5.9794,-5.9788,-5.961,0,0,0,0,0,-5.9289,-5.9345,-5.9386,-5.9463,-5.9483,-5.9507,-5.9538,-5.9542,-5.9583,-5.9599,-5.9625,-5.9664,-5.9717,-5.9751,-5.9801,-5.9894,-5.9904,-5.9935,-5.9946,-5.9954,-5.9963,-6.0015,-6.003,-5.9872,-5.9872,-5.9872,0,0,-5.9324,-5.9359,-5.9394,-5.9469,-5.9501,-5.9558,-5.9521,-5.9582,-5.9625,-5.9607,-5.9685,-5.9706,-5.975,-5.9837,-5.9876,-5.9856,-6.0009,-5.9963,-5.9969,-5.9974,-6.0024,-6.0039,-6.0052,-5.9877,-5.9876,-5.9875,0,0,-5.942,-5.9451,-5.952,-5.9553,-5.9602,-5.9617,-5.9634,-5.9679,-5.9693,-5.9772,-5.976,-5.981,-5.99,-5.9933,-5.9961,-6.007,-6.0058,-6.0086,-6.014,-6.0191,-6.0203,-6.0214,-6.0255,-6.0269,-6.0095,-6.0095,-6.0095,0,-5.9457,-5.9545,-5.9555,-5.962,-5.9653,-5.9643,-5.9712,-5.9742,-5.9804,-5.9827,-5.9804,-5.9919,-5.9948,-6.0043,-6.007,-6.0093,-6.0111,-6.0081,-6.0201,-6.0212,-6.0223,-6.0261,-6.0276,-6.0098,-6.0098,-6.0098,-6.0097,0,-5.959,-5.9651,-5.97,-5.9764,-5.9803,-5.9869,-5.9888,-5.9926,-5.9926,-5.9944,-6.0024,-6.0058,-6.0116,-6.0138,-6.0138,-6.0234,-6.022,-6.0199,-6.0158,-6.0241,-6.0277,-6.0292,-6.0103,-6.0102,-6.0101,-6.01,0,0,-5.9705,-5.9775,-5.9793,-5.9822,-5.9876,-5.9923,-5.9989,-6.0048,-6.0081,-6.0124,-6.0179,-6.0257,-6.0239,-6.0271,-6.0274,-6.0318,-6.0405,-6.0292,-6.0293,-6.0313,-6.0513,-6.053,-6.0546,-6.0397,-6.04,-6.0402,-6.051,0,-5.9806,-5.9924,-5.9936,-6.0041,-6.0098,-6.009,-6.0147,-6.0186,-6.0204,-6.0254,-6.0273,-6.0329,-6.03,-6.032,-6.0363,-6.0385,-6.0445,-6.0377,-6.0448,-6.045,-6.0438,-6.0565,-6.0582,-6.0682,-6.0524,-6.0527,-6.0528,0,-5.9939,-5.9989,-6.0101,-6.015,-6.0174,-6.0225,-6.0281,-6.0329,-6.0373,-6.0383,-6.0421,-6.0419,-6.0486,-6.0442,-6.0534,-6.0488,-6.0517,-6.0532,-6.0537,-6.0544,-6.0495,-6.0576,-6.0714,-6.073,-6.055,-6.0549,-6.0547,0,-6.0013,-6.0109,-6.0189,-6.0214,-6.0272,-6.0308,-6.0334,-6.0375,-6.0411,-6.0459,-6.0482,-6.0536,-6.0566,-6.0607,-6.062,-6.0587,-6.0712,-6.0669,-6.0722,-6.0722,-6.0749,-6.0747,-6.0895,-6.0767,-6.0767,-6.0766,-6.0766,0,-6.0125,-6.0194,-6.0223,-6.0272,-6.0349,-6.0362,-6.0437,-6.046,-6.0498,-6.0551,-6.0546,-6.0595,-6.0608,-6.066,-6.067,-6.0745,-6.0758,-6.0768,-6.077,-6.0769,-6.0768,-6.0789,-6.0782,-6.0771,-6.077,-6.0769,-6.0768,0,-6.0221,-6.0243,-6.033,-6.0379,-6.0393,-6.0448,-6.0488,-6.0535,-6.0554,-6.0621,-6.0637,-6.0665,-6.0726,-6.0743,-6.0814,-6.0821,-6.091,-6.0905,-6.0896,-6.0896,-6.0949,-6.0944,-6.1115,-6.1139,-6.0995,-6.0996,-6.0997,0,-6.0291,-6.0344,-6.04,-6.0436,-6.0464,-6.0522,-6.0559,-6.0573,-6.0612,-6.0667,-6.0708,-6.0768,-6.0817,-6.0914,-6.094,-6.0995,-6.0992,-6.1048,-6.1,-6.0998,-6.0994,-6.0991,-6.0997,-6.1057,-6.1059,-6.106,-6.1061,0,-6.0414,-6.0423,-6.0477,-6.0537,-6.0582,-6.0628,-6.0673,-6.0702,-6.0723,-6.0766,-6.083,-6.0868,-6.0943,-6.1003,-6.1059,-6.1084,-6.1076,-6.1076,-6.1091,-6.1091,-6.1085,-6.109,-6.0922,-6.1072,-6.1071,-6.107,-6.1069,-6.1069,-6.0499,-6.0547,-6.0595,-6.0656,-6.0692,-6.0735,-6.0782,-6.0807,-6.0861,-6.0925,-6.093,-6.0999,-6.1042,-6.1117,-6.1145,-6.1198,-6.1181,-6.1203,-6.1209,-6.1215,-6.122,-6.1076,-6.1208,-6.1208,-6.1208,-6.1207,-6.1207,0,-6.0623,-6.0654,-6.071,-6.0775,-6.0823,-6.0814,-6.0863,-6.0904,-6.0966,-6.1008,-6.1057,-6.1131,-6.1189,-6.1221,-6.1279,-6.1316,-6.1314,-6.133,-6.1328,-6.1334,-6.1231,-6.1212,-6.1331,-6.1331,-6.1331,-6.1331,-6.1331,-6.1331,-6.0693,-6.0774,-6.0789,-6.0888,-6.0918,-6.0988,-6.1017,-6.1056,-6.109,-6.1173,-6.1223,-6.1244,-6.1282,-6.1343,-6.1397,-6.1404,-6.1426,-6.1445,-6.1451,-6.1354,-6.1341,-6.1329,-6.1312,-6.145,-6.145,-6.155,-6.1551,-6.1552]}]]